When you browse on this site, cookies collect data to enhance your experience and personalize the content and advertising you see.
Visit our Privacy Policy to learn more. By continuing to use the site, you agree to this use of cookies and data.
  • In United Kingdom
  • List of Countries
  • For 7 days
  • Water Temperature
  • Satellite Maps
  • Weather Map
  • Weather Widgets
  • user-avatar
    Login

    Hourly Weather Orsha

    Today, 23 July, Tuesday

    Time Temperature Precipitation Wind Pressure Humidity
    00:00 +15°C° 0.5 mm 4 mps 742 mmHg 97%
    01:00 +14°C° 0.5 mm 4 mps 742 mmHg 97%
    02:00 +14°C° 0.5 mm 4 mps 742 mmHg 97%
    03:00 +14°C° 0.3 mm 5 mps 742 mmHg 97%
    04:00 +15°C° 0.3 mm 5 mps 741 mmHg 97%
    05:00 +15°C° 0.3 mm 5 mps 741 mmHg 97%
    06:00 +15°C° 0.9 mm 5 mps 741 mmHg 97%
    07:00 +15°C° 0.9 mm 5 mps 741 mmHg 97%
    08:00 +15°C° 0.9 mm 5 mps 741 mmHg 96%
    09:00 +15°C° 0.9 mm 5 mps 741 mmHg 96%
    10:00 +15°C° 0.9 mm 5 mps 741 mmHg 96%
    11:00 +15°C° 0.9 mm 5 mps 742 mmHg 96%
    12:00 +16°C° 0.4 mm 5 mps 742 mmHg 94%
    13:00 +16°C° 0.4 mm 6 mps 742 mmHg 92%
    14:00 +17°C° 0.4 mm 6 mps 742 mmHg 91%
    15:00 +19°C° 0.4 mm 6 mps 742 mmHg 88%
    16:00 +19°C° 0.4 mm 6 mps 742 mmHg 86%
    17:00 +20°C° 0.4 mm 6 mps 742 mmHg 84%
    18:00 +19°C° 0.1 mm 5 mps 741 mmHg 86%
    19:00 +17°C° 0.1 mm 5 mps 741 mmHg 88%
    20:00 +18°C° 0.1 mm 4 mps 741 mmHg 89%
    21:00 +17°C° 0 mm 4 mps 741 mmHg 91%
    22:00 +15°C° 0 mm 4 mps 742 mmHg 93%
    23:00 +15°C° 0 mm 4 mps 742 mmHg 94%

    Tomorrow, 24 July, Wednesday

    Time Temperature Precipitation Wind Pressure Humidity
    00:00 +14°C° 0 mm 4 mps 742 mmHg 95%
    01:00 +14°C° 0 mm 4 mps 742 mmHg 95%
    02:00 +13°C° 0 mm 3 mps 742 mmHg 96%
    03:00 +13°C° 0 mm 3 mps 742 mmHg 96%
    04:00 +13°C° 0 mm 4 mps 742 mmHg 96%
    05:00 +13°C° 0 mm 4 mps 742 mmHg 96%
    06:00 +15°C° 0 mm 4 mps 742 mmHg 92%
    07:00 +17°C° 0 mm 4 mps 743 mmHg 88%
    08:00 +19°C° 0 mm 5 mps 743 mmHg 84%
    09:00 +20°C° 0.2 mm 5 mps 743 mmHg 79%
    10:00 +21°C° 0.2 mm 5 mps 743 mmHg 73%
    11:00 +22°C° 0.2 mm 6 mps 743 mmHg 68%
    12:00 +22°C° 0.2 mm 6 mps 743 mmHg 67%
    13:00 +22°C° 0.2 mm 6 mps 743 mmHg 65%
    14:00 +23°C° 0.2 mm 6 mps 743 mmHg 64%
    15:00 +22°C° 0 mm 5 mps 743 mmHg 67%
    16:00 +22°C° 0 mm 5 mps 743 mmHg 70%
    17:00 +22°C° 0 mm 4 mps 743 mmHg 73%
    18:00 +20°C° 0 mm 4 mps 743 mmHg 75%
    19:00 +19°C° 0 mm 4 mps 743 mmHg 77%
    20:00 +18°C° 0 mm 4 mps 743 mmHg 80%
    21:00 +17°C° 0 mm 4 mps 743 mmHg 80%
    22:00 +15°C° 0 mm 4 mps 743 mmHg 79%
    23:00 +14°C° 0 mm 4 mps 744 mmHg 79%

    Day after tomorrow, 25 July, Thursday

    Time Temperature Precipitation Wind Pressure Humidity
    00:00 +14°C° 0 mm 4 mps 744 mmHg 82%
    01:00 +13°C° 0 mm 4 mps 743 mmHg 84%
    02:00 +13°C° 0 mm 4 mps 743 mmHg 86%
    03:00 +13°C° 0 mm 4 mps 743 mmHg 86%
    04:00 +13°C° 0 mm 4 mps 743 mmHg 86%
    05:00 +13°C° 0 mm 4 mps 743 mmHg 86%
    06:00 +14°C° 0 mm 4 mps 743 mmHg 84%
    07:00 +17°C° 0 mm 4 mps 743 mmHg 81%
    08:00 +18°C° 0 mm 4 mps 743 mmHg 78%
    09:00 +19°C° 0.2 mm 4 mps 743 mmHg 76%
    10:00 +20°C° 0.2 mm 4 mps 743 mmHg 74%
    11:00 +21°C° 0.2 mm 3 mps 743 mmHg 71%
    12:00 +21°C° 0.9 mm 4 mps 743 mmHg 73%
    13:00 +21°C° 0.9 mm 4 mps 743 mmHg 74%
    14:00 +21°C° 0.9 mm 4 mps 743 mmHg 75%
    15:00 +20°C° 0.4 mm 4 mps 743 mmHg 78%
    16:00 +20°C° 0.4 mm 4 mps 742 mmHg 81%
    17:00 +19°C° 0.4 mm 4 mps 742 mmHg 84%
    18:00 +18°C° 0.3 mm 4 mps 742 mmHg 87%
    19:00 +17°C° 0.3 mm 4 mps 742 mmHg 91%
    20:00 +16°C° 0.3 mm 3 mps 742 mmHg 94%
    21:00 +16°C° 0 mm 3 mps 742 mmHg 95%
    22:00 +14°C° 0 mm 3 mps 742 mmHg 95%
    23:00 +14°C° 0 mm 4 mps 742 mmHg 96%

    26 July, Friday

    Time Temperature Precipitation Wind Pressure Humidity
    00:00 +14°C° 0 mm 4 mps 742 mmHg 96%
    01:00 +14°C° 0 mm 4 mps 742 mmHg 96%
    02:00 +14°C° 0 mm 4 mps 742 mmHg 96%
    03:00 +14°C° 0 mm 4 mps 743 mmHg 97%
    04:00 +15°C° 0 mm 5 mps 743 mmHg 97%
    05:00 +16°C° 0 mm 5 mps 743 mmHg 97%
    06:00 +16°C° 0 mm 5 mps 743 mmHg 96%
    07:00 +17°C° 0 mm 5 mps 743 mmHg 95%
    08:00 +17°C° 0 mm 5 mps 743 mmHg 95%
    09:00 +17°C° 0.4 mm 5 mps 743 mmHg 94%
    10:00 +17°C° 0.4 mm 5 mps 744 mmHg 94%
    11:00 +19°C° 0.4 mm 6 mps 744 mmHg 93%
    12:00 +19°C° 0.6 mm 6 mps 744 mmHg 92%
    13:00 +19°C° 0.6 mm 5 mps 744 mmHg 91%
    14:00 +20°C° 0.6 mm 5 mps 744 mmHg 89%
    15:00 +20°C° 0.5 mm 5 mps 744 mmHg 88%
    16:00 +20°C° 0.5 mm 5 mps 744 mmHg 87%
    17:00 +21°C° 0.5 mm 5 mps 744 mmHg 85%
    18:00 +20°C° 0.1 mm 4 mps 744 mmHg 88%
    19:00 +19°C° 0.1 mm 4 mps 744 mmHg 91%
    20:00 +19°C° 0.1 mm 4 mps 744 mmHg 93%
    21:00 +18°C° 0 mm 3 mps 744 mmHg 94%
    22:00 +18°C° 0 mm 3 mps 745 mmHg 95%
    23:00 +17°C° 0 mm 3 mps 745 mmHg 95%

    27 July, Saturday

    Time Temperature Precipitation Wind Pressure Humidity
    00:00 +17°C° 0 mm 3 mps 745 mmHg 96%
    01:00 +17°C° 0 mm 3 mps 745 mmHg 96%
    02:00 +16°C° 0 mm 3 mps 745 mmHg 96%
    03:00 +16°C° 0 mm 3 mps 745 mmHg 96%
    04:00 +16°C° 0 mm 3 mps 745 mmHg 96%
    05:00 +16°C° 0 mm 3 mps 745 mmHg 97%
    06:00 +18°C° 0 mm 3 mps 745 mmHg 94%
    07:00 +19°C° 0 mm 4 mps 745 mmHg 92%
    08:00 +21°C° 0 mm 4 mps 745 mmHg 89%
    09:00 +22°C° 0.4 mm 4 mps 745 mmHg 84%
    10:00 +23°C° 0.4 mm 5 mps 745 mmHg 79%
    11:00 +26°C° 0.4 mm 5 mps 745 mmHg 74%
    12:00 +26°C° 0.4 mm 5 mps 745 mmHg 72%
    13:00 +26°C° 0.4 mm 5 mps 745 mmHg 71%
    14:00 +27°C° 0.4 mm 5 mps 744 mmHg 69%
    15:00 +27°C° 0 mm 4 mps 744 mmHg 71%
    16:00 +27°C° 0 mm 4 mps 744 mmHg 73%
    17:00 +27°C° 0 mm 3 mps 744 mmHg 74%
    18:00 +25°C° 0 mm 3 mps 744 mmHg 77%
    19:00 +24°C° 0 mm 3 mps 744 mmHg 80%
    20:00 +21°C° 0 mm 3 mps 744 mmHg 83%
    21:00 +20°C° 0 mm 3 mps 744 mmHg 85%
    22:00 +20°C° 0 mm 3 mps 744 mmHg 87%
    23:00 +19°C° 0 mm 2 mps 744 mmHg 89%

    28 July, Sunday

    Time Temperature Precipitation Wind Pressure Humidity
    00:00 +19°C° 0 mm 2 mps 744 mmHg 90%
    01:00 +18°C° 0 mm 2 mps 744 mmHg 91%
    02:00 +18°C° 0 mm 2 mps 744 mmHg 92%
    03:00 +18°C° 0 mm 2 mps 744 mmHg 92%
    04:00 +18°C° 0 mm 2 mps 743 mmHg 93%
    05:00 +18°C° 0 mm 2 mps 743 mmHg 94%
    06:00 +19°C° 0 mm 3 mps 743 mmHg 90%
    07:00 +20°C° 0 mm 3 mps 743 mmHg 87%
    08:00 +22°C° 0 mm 3 mps 743 mmHg 84%
    09:00 +24°C° 0.1 mm 3 mps 743 mmHg 80%
    10:00 +25°C° 0.1 mm 4 mps 743 mmHg 75%
    11:00 +26°C° 0.1 mm 4 mps 743 mmHg 71%
    12:00 +27°C° 0.1 mm 4 mps 743 mmHg 70%
    13:00 +27°C° 0.1 mm 4 mps 743 mmHg 69%
    14:00 +27°C° 0.1 mm 4 mps 742 mmHg 68%
    15:00 +26°C° 0.3 mm 4 mps 742 mmHg 73%
    16:00 +25°C° 0.3 mm 5 mps 742 mmHg 78%
    17:00 +23°C° 0.3 mm 5 mps 742 mmHg 82%
    18:00 +22°C° 0 mm 4 mps 742 mmHg 83%
    19:00 +20°C° 0 mm 4 mps 743 mmHg 85%
    20:00 +19°C° 0 mm 4 mps 743 mmHg 86%
    21:00 +17°C° 0 mm 3 mps 743 mmHg 84%
    22:00 +16°C° 0 mm 3 mps 744 mmHg 82%
    23:00 +13°C° 0 mm 3 mps 744 mmHg 80%
    Show more